Location: Bacharowice
(49.9333°N, 19.5833°E)
Time: 09:10:28
(UTC+00:00)

Cosmos 1821 Rocket - Pass Details

Date: 11 May 2021
Orbit: 945 x 1004 km, 82.9° (Epoch: 21 June)

Event Time Altitude Azimuth Distance (km) Brightness Sun altitude
Rises 21:45:06 0° 352° (N) 3,744 8.6 -20.9°
Reaches altitude 10° 21:47:43 10° 357° (N) 2,792 7.5 -21.0°
Maximum altitude 21:54:00 54° 74° (ENE) 1,214 4.5 -21.3°
Enters shadow 21:56:45 32° 134° (SE) 1,637 4.7 -21.3°
